Regional Weather Roundup
Issued by NWS Mt. Holly, NJ

Current Version | Previous Version | Text Only | Print | Product List | Glossary Off
Versions: 1 2 3 4 5 6 7 8 9 10 11 12 13 14 15 16 17 18 19 20 21 22 23 24 25 26 27 28 29 30 31 32 33 34 35 36 37 38 39 40 41 42 43 44 45 46 47 48 49 50

000
ASUS41 KPHI 191912
RWRPHI

REGIONAL WEATHER ROUNDUP
NATIONAL WEATHER SERVICE MOUNT HOLLY NJ
300 PM EDT SUN APR 19 2015

NOTE:  "FAIR" INDICATES FEW OR NO CLOUDS BELOW 12,000 FEET WITH NO
SIGNIFICANT WEATHER AND/OR OBSTRUCTIONS TO VISIBILITY.

 * = STATION DOES NOT REPORT PRECIPITATION (E.G. RAIN, SNOW, ETC.)
        OR FOG.

NJZ015>026-192000-
SOUTHERN NEW JERSEY

CITY           SKY/WX    TMP DP  RH WIND       PRES   REMARKS
POMONA         PTSUNNY   54  38  54 E16       30.20F
MILLVILLE      CLOUDY    58  36  43 E17       30.17F
WRIGHTSTOWN    MOSUNNY   57  35  42 SE12G22   30.16F
MOUNT HOLLY    MOSUNNY   58  34  40 E13G21    30.19F
TRENTON        MOSUNNY   61  35  37 SE16G22   30.18S

$$
NJZ001>014-192000-
NORTHERN NEW JERSEY

CITY           SKY/WX    TMP DP  RH WIND       PRES   REMARKS
SUSSEX         SUNNY     66  27  23 CALM      30.16F
ANDOVER*         N/A     64  26  23 CALM      30.15F
MORRISTOWN     PTSUNNY   59  36  41 S17       30.20F
NEWARK         PTSUNNY   55  34  45 SE14      30.22F
TETERBORO      SUNNY     58  34  40 SE13G20   30.20F
CALDWELL       SUNNY     58  36  43 SE12G23   30.20F
SOMERVILLE     SUNNY     64  34  32 SE12G20   30.17F
ALLAIRE*       MOSUNNY   52  34  50 E17G23    30.23S
TOMS RIVER*    MOSUNNY   54  36  50 SE16      30.23F

$$
PAZ043-044-047-054-055-060>062-066>071-192000-
EASTERN PENNSYLVANIA

CITY           SKY/WX    TMP DP  RH WIND       PRES   REMARKS
PHILADELPHIA   PTSUNNY   62  36  37 SE14      30.17F
NORTH PHILA    MOSUNNY   62  31  31 E15       30.20F
BLUE BELL      MOSUNNY   64  37  36 E10G17    30.16S
DOYLESTOWN     MOSUNNY   61  35  37 VRB5      30.16F
QUAKERTOWN*    MOSUNNY   64  37  36 SE10G16   30.16S
POTTSTOWN      MOSUNNY   63  37  38 VRB7      30.16F
LANCASTER      PTSUNNY   64  40  41 E17       30.11F
COATESVILLE    PTSUNNY   63  36  36 SE9       30.14F
READING        MOSUNNY   65  35  33 SE9G18    30.11F
ALLENTOWN      MOSUNNY   67  33  28 VRB5G16   30.14F
MOUNT POCONO   SUNNY     61  23  23 SE12G18   30.14F
HAZLETON       FAIR      63  27  25 SE7G16    30.14F
WILKES BARRE   MOSUNNY   69  23  17 VRB7      30.10F

$$
DEZALL-MDZ008-012-015-019-020-192000-
DELAWARE AND EASTERN MARYLAND

CITY           SKY/WX    TMP DP  RH WIND       PRES   REMARKS
WILMINGTON     PTSUNNY   63  36  36 SE14      30.16F
DOVER          CLOUDY    56  41  56 E21G30    30.13F
GEORGETOWN     PTSUNNY   60  41  49 E16G26    30.16F
EASTON         SUNNY     64  46  52 E17G35    30.16F
PATUXENT       PTSUNNY   63  50  62 E18       30.09F
OCEAN CITY     PTSUNNY   55  44  66 NE15G23   30.14F
WALLOPS ISLAND CLOUDY    58  51  78 NE21G29   30.11F
CAMBRIDGE      MOSUNNY   64  46  52 E16G23    30.11F
SALISBURY      CLOUDY    60  45  57 E17G30    30.12F

$$
PAZ001-021-NYZ056-072-MDZ011-DCZ001-192000-
OTHER NEARBY LOCATIONS

CITY           SKY/WX    TMP DP  RH WIND       PRES   REMARKS
HARRISBURG     CLOUDY    65  40  39 SE16      30.09F
STATE COLLEGE  SUNNY     64  32  29 SE14G20   30.05F
WILLIAMSPORT   MOSUNNY   70  26  19 SE9G21    30.05F
BINGHAMTON     SUNNY     62  22  21 SE8       30.10F
NEW YORK CITY  SUNNY     57  33  40 S9G22     30.24F
BALTIMORE      PTSUNNY   62  41  46 E16G26    30.12F
WASHINGTON DC  PTSUNNY   69  49  48 E17G23    30.10S

$$


USA.gov is the U.S. government's official web portal to all federal, state and local government web resources and services.